Location: Marcé
(47.5801°N, 0.3280°W)
Time: 06:22:11
(UTC+01:00)

Envisat - Pass Details

Date: 17 October 2021
Orbit: 764 x 766 km, 98.2° (Epoch: 04 December)

Event Time Altitude Azimuth Distance (km) Brightness Sun altitude
Rises 07:17:13 0° 13° (NNE) 3,246 6.4 -11.8°
Reaches altitude 10° 07:19:32 10° 14° (NNE) 2,315 5.7 -11.4°
Maximum altitude 07:24:39 88° 103° (ESE) 773 3.0 -10.6°
Drops below altitude 10° 07:29:44 10° 195° (SSW) 2,296 5.4 -9.7°
Sets 07:32:01 0° 195° (SSW) 3,218 6.1 -9.3°
